Location: Palomar Mountain Lodge
(33.3110°N, 116.8495°W)
Time: 10:41:37
(UTC-07:00)

Cosmos 1850 Rocket - Pass Details

Date: 12 July 2018
Orbit: 755 x 785 km, 74.0° (Epoch: 21 September)

Event Time Altitude Azimuth Distance (km) Brightness Sun altitude
Rises 21:25:37 0° 204° (SSW) 3,207 7.1 -15.9°
Reaches altitude 10° 21:28:00 10° 207° (SSW) 2,290 6.3 -16.3°
Maximum altitude 21:33:09 63° 288° (WNW) 858 4.5 -17.1°
Drops below altitude 10° 21:38:22 10° 10° (N) 2,323 6.9 -17.9°
Sets 21:40:48 0° 13° (NNE) 3,259 7.7 -18.3°
